Kimball, NE

4:06 AM MDT on July 28, 2017 (GMT -0600)
Kimball Municipal-Arraj

Weather History for KIBM - October, 2013

Change the Weather History Date:

Tuesday, October 15, 2013

  Actual Average (KSNY) Record (KSNY)
Temperature  
Mean Temperature 35 °F -  
Max Temperature 41 °F 61 °F 86 °F (2010)
Min Temperature 29 °F 30 °F 18 °F (1969)
Degree Days  
Heating Degree Days 30    
Moisture  
Dew Point 27 °F    
Average Humidity 73    
Maximum Humidity 88    
Minimum Humidity 54    
Precipitation  
Precipitation 0.00 in - - ()
Sea Level Pressure  
Sea Level Pressure 30.20 in    
Wind  
Wind Speed 23 mph (NW)    
Max Wind Speed 31 mph    
Max Gust Speed 41 mph    
Visibility 10 miles    
Events      
Averages and records for this station are not official NWS values.
T = Trace of Precipitation, MM = Missing Value Source: NWS Daily Summary

Daily Weather History Graph

Daily Weather History Graph

Search for Another Location

Airport or City:

Trip Planner

Search our weather history database for the weather conditions in past years. The results will help you decide how hot, cold, wet, or windy it might be!

Date:

Astronomy

Oct. 15, 2013 Rise Set
Actual Time 8:06 AM CDT 7:13 PM CDT
Civil Twilight 7:38 AM CDT 7:41 PM CDT
Nautical Twilight 7:06 AM CDT 8:13 PM CDT
Astronomical Twilight 6:34 AM CDT 8:45 PM CDT
Moon 5:21 PM CDT (10/15) 4:30 AM CDT (10/15)
Length of Visible Light 12h 02m
Length of Day
11h 06m
Waxing Gibbous, 88% of the Moon is Illuminated
Oct 15
Waxing Gibbous
Oct 18
Full
Oct 26
Last Quarter
Nov 3
New
Nov 9
First Quarter

Hourly Weather History & Observations

Time (CDT) Temp. Windchill Dew Point Humidity Pressure Visibility Wind Dir Wind Speed Gust Speed Precip Events Conditions
12:15 AM 34.9 °F 22.0 °F 28.4 °F 77% 30.13 in 10.0 mi NNW 27.6 mph 40.3 mph N/A   Overcast
12:35 AM 34.9 °F 21.8 °F 27.5 °F 74% 30.13 in 10.0 mi NNW 28.8 mph 41.4 mph N/A   Overcast
12:55 AM 34.7 °F 21.5 °F 28.2 °F 77% 30.13 in 10.0 mi NW 28.8 mph 39.1 mph N/A   Overcast
1:15 AM 34.9 °F 23.3 °F 28.0 °F 76% 30.15 in 10.0 mi NW 21.9 mph 33.4 mph N/A   Overcast
1:35 AM 34.7 °F 21.1 °F 27.7 °F 76% 30.14 in 10.0 mi NW 31.1 mph 35.7 mph N/A   Overcast
1:55 AM 34.7 °F 22.0 °F 28.0 °F 77% 30.16 in 10.0 mi NW 26.5 mph 33.4 mph N/A   Overcast
2:15 AM 34.5 °F 21.3 °F 28.4 °F 78% 30.15 in 10.0 mi NW 28.8 mph 35.7 mph N/A   Overcast
2:35 AM 34.3 °F 21.5 °F 27.5 °F 76% 30.16 in 10.0 mi NW 26.5 mph 40.3 mph N/A   Overcast
2:55 AM 34.2 °F 21.3 °F 27.5 °F 77% 30.15 in 10.0 mi NNW 26.5 mph 34.5 mph N/A   Overcast
3:15 AM 34.2 °F 20.8 °F 27.1 °F 75% 30.15 in 10.0 mi NNW 28.8 mph 41.4 mph N/A   Overcast
3:35 AM 34.0 °F 21.3 °F 27.5 °F 77% 30.16 in 10.0 mi NW 25.3 mph 38.0 mph N/A   Overcast
3:55 AM 33.8 °F 20.8 °F 27.5 °F 78% 30.17 in 10.0 mi NW 26.5 mph 33.4 mph N/A   Overcast
4:15 AM 33.8 °F 20.5 °F 27.3 °F 77% 30.17 in 10.0 mi NW 27.6 mph 34.5 mph N/A   Overcast
4:35 AM 33.6 °F 21.6 °F 27.3 °F 78% 30.19 in 10.0 mi NW 21.9 mph 33.4 mph N/A   Overcast
4:55 AM 33.3 °F 20.3 °F 27.3 °F 79% 30.18 in 10.0 mi NW 25.3 mph 32.2 mph N/A   Overcast
5:15 AM 33.3 °F 20.3 °F 27.1 °F 78% 30.19 in 10.0 mi NW 25.3 mph 35.7 mph N/A   Overcast
5:35 AM 33.3 °F 21.5 °F 27.1 °F 78% 30.19 in 10.0 mi NW 20.7 mph 36.8 mph N/A   Overcast
5:55 AM 33.4 °F 20.1 °F 26.8 °F 77% 30.19 in 10.0 mi NW 27.6 mph 34.5 mph N/A   Overcast
6:15 AM 33.3 °F 20.6 °F 26.8 °F 77% 30.20 in 10.0 mi NW 24.2 mph 32.2 mph N/A   Overcast
6:35 AM 33.3 °F 20.1 °F 26.4 °F 76% 30.19 in 10.0 mi NW 26.5 mph 36.8 mph N/A   Overcast
6:55 AM 33.3 °F 21.2 °F 26.6 °F 77% 30.20 in 10.0 mi NW 21.9 mph 34.5 mph N/A   Overcast
7:15 AM 33.3 °F 20.3 °F 26.2 °F 75% 30.20 in 10.0 mi NNW 25.3 mph 33.4 mph N/A   Overcast
7:35 AM 33.1 °F 19.8 °F 26.4 °F 77% 30.20 in 10.0 mi NNW 26.5 mph 34.5 mph N/A   Overcast
7:55 AM 33.1 °F 20.6 °F 26.6 °F 77% 30.20 in 10.0 mi NNW 23.0 mph 31.1 mph N/A   Overcast
8:15 AM 32.7 °F 20.1 °F 26.6 °F 78% 30.21 in 10.0 mi NNW 23.0 mph 34.5 mph N/A   Overcast
8:35 AM 32.2 °F 20.4 °F 26.6 °F 80% 30.21 in 10.0 mi NNW 19.6 mph 32.2 mph N/A   Overcast
8:55 AM 32.5 °F 19.4 °F 27.1 °F 80% 30.22 in 10.0 mi NW 25.3 mph 32.2 mph N/A   Overcast
9:15 AM 32.9 °F 19.6 °F 26.8 °F 78% 30.22 in 10.0 mi NNW 26.5 mph 36.8 mph N/A   Overcast
9:35 AM 33.4 °F 20.3 °F 27.3 °F 78% 30.23 in 10.0 mi NNW 26.5 mph 34.5 mph N/A   Overcast
9:55 AM 33.4 °F 20.8 °F 27.3 °F 78% 30.24 in 10.0 mi NW 24.2 mph 32.2 mph N/A   Overcast
10:15 AM 34.2 °F 21.8 °F 27.3 °F 76% 30.24 in 10.0 mi NNW 24.2 mph 33.4 mph N/A   Mostly Cloudy
10:35 AM 35.6 °F 22.7 °F 27.5 °F 72% 30.25 in 10.0 mi NNW 28.8 mph 35.7 mph N/A   Mostly Cloudy
10:55 AM 35.8 °F 23.2 °F 27.3 °F 71% 30.25 in 10.0 mi NNW 27.6 mph 33.4 mph N/A   Mostly Cloudy
11:15 AM 36.0 °F 23.5 °F 27.5 °F 71% 30.26 in 10.0 mi NNW 27.6 mph 33.4 mph N/A   Overcast
11:35 AM 38.1 °F 27.3 °F 28.0 °F 67% 30.25 in 10.0 mi NNW 23.0 mph 34.5 mph N/A   Mostly Cloudy
11:55 AM 38.1 °F 26.8 °F 27.5 °F 66% 30.25 in 10.0 mi NNW 25.3 mph 32.2 mph N/A   Mostly Cloudy
12:15 PM 38.8 °F 28.5 °F 27.1 °F 63% 30.25 in 10.0 mi NNW 21.9 mph 35.7 mph N/A   Scattered Clouds
12:35 PM 39.6 °F 29.5 °F 26.8 °F 60% 30.25 in 10.0 mi NNW 21.9 mph 33.4 mph N/A   Scattered Clouds
12:55 PM 40.1 °F 28.8 °F 27.1 °F 60% 30.24 in 10.0 mi NNW 28.8 mph 35.7 mph N/A   Mostly Cloudy
1:15 PM 41.0 °F 30.7 °F 27.1 °F 58% 30.24 in 10.0 mi NNW 25.3 mph 34.5 mph N/A   Mostly Cloudy
1:35 PM 39.9 °F 30.2 °F 27.3 °F 61% 30.24 in 10.0 mi NNW 20.7 mph 33.4 mph N/A   Mostly Cloudy
1:55 PM 39.2 °F 28.7 °F 25.9 °F 59% 30.23 in 10.0 mi NNW 23.0 mph 29.9 mph N/A   Overcast
2:15 PM 39.6 °F 29.2 °F 26.2 °F 59% 30.22 in 10.0 mi NW 23.0 mph 32.2 mph N/A   Overcast
2:35 PM 39.2 °F 28.7 °F 25.9 °F 59% 30.21 in 10.0 mi NNW 23.0 mph 31.1 mph N/A   Overcast
2:55 PM 39.2 °F 28.5 °F 25.3 °F 58% 30.21 in 10.0 mi NNW 24.2 mph 33.4 mph N/A   Overcast
3:15 PM 38.8 °F 28.5 °F 26.8 °F 62% 30.21 in 10.0 mi North 21.9 mph 27.6 mph N/A   Overcast
3:35 PM 39.4 °F 29.5 °F 25.7 °F 58% 30.21 in 10.0 mi NNW 20.7 mph 26.5 mph N/A   Overcast
3:55 PM 39.2 °F 28.7 °F 25.0 °F 57% 30.20 in 10.0 mi NNW 23.0 mph 31.1 mph N/A   Overcast
4:15 PM 38.7 °F 28.0 °F 26.4 °F 61% 30.20 in 10.0 mi NNW 23.0 mph 28.8 mph N/A   Overcast
4:35 PM 39.0 °F 28.8 °F 25.9 °F 59% 30.20 in 10.0 mi NNW 21.9 mph 27.6 mph N/A   Overcast
4:55 PM 40.1 °F 30.2 °F 24.4 °F 54% 30.19 in 10.0 mi NNW 21.9 mph 27.6 mph N/A   Overcast
5:15 PM 38.5 °F 28.6 °F 25.3 °F 59% 30.20 in 10.0 mi NNW 19.6 mph 26.5 mph N/A   Overcast
5:35 PM 38.3 °F 28.7 °F 26.6 °F 63% 30.19 in 10.0 mi North 18.4 mph - N/A   Overcast
5:55 PM 37.9 °F 29.2 °F 27.1 °F 65% 30.20 in 10.0 mi NNW 15.0 mph 21.9 mph N/A   Overcast
6:15 PM 38.3 °F 30.1 °F 26.6 °F 63% 30.20 in 10.0 mi NNW 13.8 mph 18.4 mph N/A   Overcast
6:35 PM 38.3 °F 29.7 °F 26.4 °F 62% 30.19 in 10.0 mi North 15.0 mph 20.7 mph N/A   Overcast
6:55 PM 38.3 °F 29.3 °F 26.1 °F 61% 30.19 in 10.0 mi NNW 16.1 mph 20.7 mph N/A   Overcast
7:15 PM 36.5 °F 28.7 °F 26.6 °F 67% 30.19 in 10.0 mi NNW 11.5 mph 17.3 mph N/A   Scattered Clouds
7:55 PM 33.8 °F 28.6 °F 27.0 °F 76% 30.21 in 10.0 mi NNW 5.8 mph - N/A   Clear
8:15 PM 32.9 °F 26.7 °F 26.8 °F 78% 30.20 in 10.0 mi NNW 6.9 mph - N/A   Clear
8:35 PM 32.9 °F 25.9 °F 27.0 °F 79% 30.20 in 10.0 mi NNW 8.1 mph - N/A   Clear
8:55 PM 32.9 °F 26.7 °F 26.4 °F 77% 30.20 in 10.0 mi NW 6.9 mph - N/A   Clear
9:15 PM 30.9 °F 26.2 °F 26.4 °F 83% 30.20 in 10.0 mi NW 4.6 mph - N/A   Clear
9:35 PM 30.4 °F 24.5 °F 26.1 °F 84% 30.20 in 10.0 mi WNW 5.8 mph - N/A   Clear
9:55 PM 29.8 °F 23.0 °F 25.9 °F 85% 30.20 in 10.0 mi WNW 6.9 mph - N/A   Clear
10:15 PM 29.5 °F 22.5 °F 26.2 °F 88% 30.20 in 10.0 mi WNW 6.9 mph - N/A   Clear
10:35 PM 30.2 °F 24.3 °F 26.6 °F 86% 30.20 in 10.0 mi WNW 5.8 mph - N/A   Clear
10:55 PM 30.2 °F 24.3 °F 26.4 °F 86% 30.20 in 10.0 mi WNW 5.8 mph - N/A   Clear
11:15 PM 29.8 °F 23.9 °F 26.4 °F 87% 30.20 in 10.0 mi West 5.8 mph - N/A   Clear
11:35 PM 29.7 °F 24.7 °F 26.4 °F 88% 30.19 in 10.0 mi West 4.6 mph - N/A   Clear
11:55 PM 29.1 °F 23.0 °F 25.7 °F 87% 30.19 in 10.0 mi WNW 5.8 mph - N/A   Clear